Aktuelle Messwerte

Aktuelle Wetterdaten

Wetterdaten des heutigen Tages

Wetterdaten in der grafischen Übersicht

Tabellarische Übersicht der Messwerte

Wetterdaten - Freitag, 29.09.2023 - Heringen-Kleinensee     222 m ber NN
Wetterdaten: aktuell Freitag, 29.09.2023 19:40
Datum Zeit Temp. A. Feuchte A. Luftdruck Regen Wind Richtung Richtung Sonnenschein Taupunkt Windchill Windben
29.09.2023 19:40 19,8 C 74 % 1016,9 hPa 0,0 l/m 4,8 km/h W 262 0 min 15,0 C 19,8 C 17,7 km/h
29.09.2023 19:35 19,9 C 74 % 1016,7 hPa 0,0 l/m 5,3 km/h W 277 0 min 15,1 C 19,9 C 14,5 km/h
29.09.2023 19:30 20,0 C 73 % 1016,7 hPa 0,0 l/m 4,0 km/h W-SW 243 0 min 15,0 C 20,0 C 11,3 km/h
29.09.2023 19:25 20,1 C 73 % 1016,7 hPa 0,0 l/m 5,4 km/h W 262 0 min 15,1 C 20,1 C 12,9 km/h
29.09.2023 19:20 20,2 C 73 % 1016,7 hPa 0,0 l/m 4,9 km/h W 270 0 min 15,2 C 20,2 C 9,7 km/h
29.09.2023 19:15 20,3 C 73 % 1016,7 hPa 0,0 l/m 3,8 km/h W 277 0 min 15,3 C 20,3 C 9,7 km/h
29.09.2023 19:10 20,4 C 72 % 1016,6 hPa 0,0 l/m 4,6 km/h W-SW 240 0 min 15,2 C 20,4 C 11,3 km/h
29.09.2023 19:05 20,6 C 72 % 1016,4 hPa 0,0 l/m 2,9 km/h S-SW 206 0 min 15,4 C 20,6 C 8,0 km/h
29.09.2023 19:00 20,8 C 72 % 1016,3 hPa 0,0 l/m 1,9 km/h W 260 0 min 15,6 C 20,8 C 6,4 km/h
29.09.2023 18:55 21,0 C 71 % 1016,4 hPa 0,0 l/m 4,3 km/h SW 236 0 min 15,5 C 21,0 C 11,3 km/h
29.09.2023 18:50 21,1 C 71 % 1016,3 hPa 0,0 l/m 5,6 km/h W 277 0 min 15,6 C 21,1 C 12,9 km/h
_ Min-Zeit 04:45 13:30 14:45 - 20:00 - - - 04:30 04:45 20:00
Minimum _ 10,8 C 61 % 1014,6 hPa - 0,0 km/h - - - 10,1 C 10,8 C 0,0 km/h
_ Max-Zeit 15:00 06:10 22:20 20:00 15:10 - - 20:00 13:10 14:55 15:10
Maximum _ 25,1 C 97 % 1017,0 hPa 0,0 l/m 8,9 km/h
SW
- - 0 min 18,1 C 25,0 C 22,5 km/h
W
Durchschnitt _ 16,5 C 86 % 1016,2 hPa #0,0 l/m 1,2 km/h W - #0 min. 13,9 C 16,5 C 3,5 km/h
(c) werratal-wetter.de